SCP
0 0 0 0 0 0 0 0 0 0 0 0 0 0 0 0 0 0 0 0 0 0 0 0 0 0 0 0 0 0 0 0 0 0 0 0 0 0 0 0 0 0 0 0 0
0 0 0 0 0 0 0 0 0 0 0 0 0 0 0 0 0 0 0 0 0 0 0 0 0 0 0 0 0 0 0 0 0 0 0 0 0 0 0 0 0 0 0 0 0
0 0 0 0 0 0 0 0 0 0 0 0 0 0 0 0 0 0 0 0 0 0 0 0 0 0 0 0 0 0 0 0 0 0 0 0 0 0 0 0 0 0 0 0 0
0 0 0 0 0 0 0 0 0 0 0 0 0 0 0 0 0 0 0 0 0 0 0 0 0 0 0 0 0 0 0 0 0 0 0 0 0 0 0 0 0 0 0 0 0
0 0 0 0 0 0 0 0 0 0 0 0 0 0 0 0 0 0 0 0 0 0 0 0 0 0 0 0 0 0 0 0 0 0 0 0 0 0 0 0 0 0 0 0 0
0 0 0 0 0 0 0 0 0 0 0 0 0 0 0 0 0 0 0 0 0 0 0 0 0 0 0 0 0 0 0 0 0 0 0 0 0 0 0 0 0 0 0 0 0
0 0 0 0 0 0 0 0 0 0 0 0 0 0 0 0 0 0 0 0 0 0 0 0 0 0 0 0 0 0 0 0 0 0 0 0 0 0 0 0 0 0 0 0 0
0 0 0 0 0 0 0 0 0 0 0 0 0 0 0 0 0 0 0 0 0 0 0 0 0 0 0 0 0 0 0 0 0 0 0 0 0 0 0 0 0 0 0 0 0
0 0 0 0 0 0 0 0 0 0 0 0 0 0 0 0 0 0 0 0 0 0 0 0 0 0 0 0 0 0 0 0 0 0 0 0 0 0 0 0 0 0 0 0 0
0 0 0 0 0 0 0 0 0 0 0 0 0 0 0 0 0 0 0 0 0 0 0 0 0 0 0 0 0 0 0 0 0 0 0 0 0 0 0 0 0 -0 -0 0 0
0 0 0 0 0 0 0 0 0 0 0 0 0 0 0 0 0 0 0 0 0 0 0 0 0 0 0 0 0 0 0 0 0 0 0 0 0 0 0 0 0 0 0 0 0
0 0 0 0 0 0 0 0 0 0 0 0 0 0 0 0 0 0 0 0 0 0 0 0 0 0 0 0 0 0 0 0 0 0 0 0 0 0 0 0 0 0 0 0 0
0 0 0 0 0 0 0 0 0 0 0 0 0 0 0 0 0 0 0 0 0 0 0 0 0 0 0 0 0 0 0 0 0 0 0 0 0 0 0 0 0 0 0 0 0
0 0 0 0 0 0 0 0 0 0 0 0 0 0 0 0 0 0 0 0 0 0 0 0 0 0 0 0 0 0 0 0 0 0 0 0 0 0 0 0 0 0 0 0 0
0 0 0 0 0 0 0 0 0 0 0 0 0 0 0 0 0 0 0 0 0 0 0 0 0 0 0 0 0 0 0 0 0 0 0 0 0 0 0 0 0 0 0 0 0
0 0 0 0 0 0 0 0 0 0 0 0 0 0 0 0 0 0 0 0 0 0 0 0 0 0 0 0 0 0 0 0 0 0 0 0 0 0 0 0 0 0 0 0 0
-0 0 0 0 0 0 0 0 0 0 0 0 0 0 0 0 0 0 0 0 0 0 0 0 0 0 0 0 0 0 0 0 0 0 0 0 0 0 0 0 0 0 0 0 0
0 0 0 0 0 0 0 0 0 0 0 0 0 0 0 0 0 0 0 0 0 0 0 0 0 0 0 0 0 0 0 0 0 0 0 0 0 0 0 0 0 0 0 0 0
0 0 0 0 0 0 0 0 0 0 0 0 0 0 0 0 0 0 0 0 0 0 0 0 0 0 0 0 0 0 0 0 0 0 0 0 0 0 0 0 0 0 0 0 0
0 0 0 0 0 0 0 0 0 0 0 0 0 0 0 0 0 0 0 0 0 0 0 0 0 0 0 0 0 0 0 0 0 0 0 0 0 0 0 0 0 0 0 0 0
0 0 0 0 0 0 0 0 0 0 0 0 0 0 0 0 0 0 0 0 0 0 0 0 0 0 0 0 0 0 0 0 0 0 0 0 0 0 0 0 0 0 0 0 0
0 0 0 0 0 0 0 0 0 0 0 0 0 0 0 0 0 0 0 0 0 0 0 0 0 0 0 0 0 0 0 0 0 0 0 0 0 0 0 -0 0 0 0 0 0
0 0 0 0 0 0 0 0 0 0 0 0 0 0 0 0 0 0 0 0 0 0 0 0 0 0 0 0 0 0 0 0 0 0 0 0 -0 0 0 0 0 0 0 0 0
0 0 0 0 0 0 0 0 0 0 0 0 0 0 0 0 0 0 0 0 0 0 0 0 0 0 0 0 0 0 0 0 0 0 0 0 0 0 0 0 0 0 0 0 0
0 0 0 0 0 0 0 0 0 0 0 0 -0 0 0 0 0 0 0 0 0 0 0 0 0 0 0 0 0 0 0 0 0 0 0 0 0 0 0 0 0 0 0 0 0
0 0 0 0 0 0 0 0 0 0 0 0 -0 -0 0 0 0 0 0 0 0 0 0 0 0 0 0 0 0 0 0 0 0 0 0 0 0 0 0 0 0 0 0 0 0
0 0 0 0 0 0 0 0 0 0 0 0 0 0 -0 0 0 0 0 0 0 0 0 0 0 0 0 0 0 0 0 0 0 0 0 0 0 0 0 0 0 0 0 0 0
Wind_Speed_500mb
70 61 54 53 48 45 43 48 53 55 48 41 39 39 35 35 40 41 34 30 22 20 22 18 16 15 13 7 8 4 8 3 5 8 3 3 4 2 2 6 10 8 9 10 14
86 72 63 54 53 48 44 41 44 49 53 46 38 34 34 33 35 45 47 35 26 19 17 16 16 13 7 7 5 7 7 14 5 4 2 1 3 1 2 1 7 11 12 15 13
68 82 80 65 57 54 48 42 41 42 48 49 42 34 29 27 27 45 49 42 33 23 18 17 8 7 2 4 3 3 9 7 5 1 1 4 4 1 6 5 12 6 5 11 13
63 69 86 75 65 57 53 47 41 37 41 46 44 37 27 24 13 5 20 34 42 35 27 17 9 1 2 2 2 3 7 6 1 3 3 4 6 11 10 9 7 9 17 21 22
76 66 69 82 70 64 54 50 44 39 38 40 44 40 36 31 35 3 4 19 43 45 36 26 17 9 6 4 3 4 3 5 9 13 12 14 16 16 25 20 22 28 25 23 27
78 71 66 69 76 66 59 54 47 41 36 38 41 46 46 34 34 45 5 13 17 43 40 33 14 17 4 5 6 4 3 10 7 13 18 11 9 13 4 11 22 25 30 30 31
78 78 68 62 71 67 62 53 51 43 38 38 39 49 44 46 18 39 52 24 2 23 37 34 28 17 11 2 12 7 9 11 7 10 10 9 13 13 39 28 30 33 28 35 37
73 76 69 65 61 67 62 58 48 46 41 36 39 46 25 42 32 18 43 46 26 10 24 29 28 14 8 4 4 2 3 6 6 9 9 9 18 8 17 14 23 30 36 37 42
70 74 80 71 64 60 64 60 52 43 42 37 38 28 17 30 58 35 23 37 39 28 17 15 28 10 12 8 9 7 12 8 12 4 5 13 6 11 20 27 41 48 53 55 58
67 75 75 78 70 63 59 57 48 41 44 38 31 19 29 26 45 51 30 26 32 33 23 15 11 8 7 14 30 22 12 7 13 3 4 12 20 17 52 50 52 61 65 69 73
68 75 77 75 77 64 60 54 36 25 66 22 27 13 2 34 36 60 43 35 31 33 16 20 12 25 26 20 14 6 4 7 2 3 8 12 21 22 51 50 50 61 75 88 95
81 70 77 76 82 76 70 70 68 23 20 40 14 52 17 32 29 46 64 32 21 11 17 10 37 17 9 14 13 11 14 13 6 5 5 15 42 25 19 36 53 60 72 80 83
82 90 82 82 83 75 85 85 70 34 12 28 26 56 35 36 20 51 62 50 11 16 23 23 8 32 20 13 16 13 21 7 8 1 7 10 47 27 38 48 55 48 57 73 80
94 90 81 80 80 86 85 82 65 48 7 18 25 23 35 25 9 28 63 41 14 32 14 21 29 14 8 22 15 25 14 11 8 5 16 10 34 26 10 24 17 54 62 68 81
82 86 81 91 74 93 91 84 63 49 21 24 22 22 46 36 32 29 61 47 16 12 14 14 19 27 25 18 20 11 14 18 12 8 8 28 12 9 11 21 38 36 44 63 49
86 92 93 94 73 91 80 84 66 18 27 15 26 24 28 45 14 29 30 32 13 9 4 8 3 16 14 10 25 12 9 5 6 11 17 27 19 48 20 24 20 10 24 36 27
74 86 118 104 79 90 81 81 23 27 18 18 26 31 49 21 25 19 26 25 15 18 28 9 10 5 5 11 4 8 10 6 9 11 17 8 21 46 7 14 13 22 33 3 20
75 114 110 101 88 90 81 31 34 20 19 9 23 40 41 30 26 17 29 34 26 6 9 26 9 20 11 13 12 20 26 13 9 8 9 8 18 22 11 9 22 35 25 23 25
75 92 94 83 91 91 58 30 31 9 16 24 28 31 23 27 20 23 32 44 32 30 19 17 13 4 2 9 20 11 24 30 13 3 3 9 15 21 6 20 16 4 28 33 36
66 55 57 74 85 79 23 20 9 4 10 16 20 25 28 41 29 37 33 31 22 37 3 11 2 1 6 8 8 8 6 8 11 10 8 9 10 14 22 23 7 17 38 43 45
44 21 53 65 69 48 17 14 4 13 8 18 15 17 35 26 35 35 33 13 45 32 23 10 8 2 9 18 22 11 16 6 3 6 9 22 11 10 20 23 11 30 47 47 46
26 7 49 74 10 5 8 13 18 8 19 1 3 7 28 34 35 34 39 39 52 41 40 12 8 9 20 5 3 13 24 24 15 10 8 2 4 3 3 21 46 41 49 45 44
27 14 52 61 11 4 6 8 2 9 11 8 8 8 8 31 20 30 24 21 43 34 37 25 12 7 3 3 4 12 21 21 7 1 19 7 10 8 13 31 40 53 46 39 32
20 9 13 28 11 7 9 10 16 20 3 12 9 7 4 13 10 31 34 8 48 45 37 48 8 27 28 10 12 16 21 21 19 7 14 18 10 11 12 23 29 33 31 25 18
10 5 14 17 25 18 14 16 14 15 17 32 17 24 8 12 27 10 20 9 19 47 32 24 20 10 1 5 7 11 19 34 33 50 22 21 25 28 30 25 30 32 25 17 10
14 9 9 3 18 27 15 15 34 15 19 14 23 33 38 13 24 24 28 14 18 10 31 12 6 14 10 12 9 8 13 36 47 37 40 20 25 10 41 41 27 26 29 26 19
10 17 21 18 20 23 35 28 29 27 30 29 38 21 24 45 38 30 48 39 24 25 30 21 11 8 19 8 9 12 50 27 27 14 36 31 29 15 16 25 27 33 35 31 21
Wind_Direction_500mb
242 242 240 237 234 233 234 235 232 233 235 236 236 237 236 246 255 248 247 250 256 272 280 283 305 327 330 6 19 44 65 154 239 165 239 7 136 100 102 153 195 214 270 291 306
240 241 240 239 236 233 231 231 231 231 230 232 235 237 237 243 252 255 242 240 247 259 277 290 290 310 336 350 19 81 109 213 231 157 241 24 129 55 155 130 228 240 266 290 278
237 236 238 239 238 234 230 227 225 226 227 227 230 233 237 242 263 268 256 243 236 246 254 261 291 346 9 337 354 133 178 212 249 223 316 331 311 317 154 269 246 261 301 300 280
239 233 234 238 234 234 230 226 225 222 220 220 221 225 227 227 225 247 245 231 224 228 233 242 248 42 55 249 252 295 233 199 322 330 315 298 303 299 234 243 251 241 300 290 277
241 237 231 233 234 230 228 224 221 220 216 212 211 213 212 210 216 257 17 222 211 213 219 222 216 188 189 213 262 214 250 245 278 279 275 275 252 259 265 270 272 279 285 279 274
240 238 230 230 228 227 223 222 219 216 213 208 205 204 211 222 239 226 222 49 220 216 209 209 213 213 234 222 180 279 268 278 288 275 266 261 269 215 271 249 257 280 289 290 283
238 231 229 226 224 224 220 219 215 213 210 205 203 205 215 220 221 222 229 246 38 210 212 209 201 193 199 259 234 273 318 327 250 253 254 284 293 226 274 273 271 276 283 296 295
235 229 226 223 222 219 219 215 214 209 206 203 206 207 221 227 217 209 222 227 223 160 197 216 206 211 190 163 36 188 67 277 266 220 239 159 261 278 296 280 277 280 286 290 292
229 227 225 226 221 215 214 213 210 206 202 198 202 197 228 215 208 202 214 215 215 216 205 197 207 198 171 141 232 197 246 235 305 18 298 191 258 258 248 280 292 293 295 296 295
228 225 226 223 221 210 209 206 201 197 191 192 202 187 235 201 204 193 198 196 189 197 188 190 180 171 180 187 224 231 228 232 221 274 239 267 263 272 278 285 292 294 297 297 294
239 220 222 223 212 208 199 189 179 194 183 180 184 188 332 192 193 196 192 182 188 189 182 186 210 216 200 216 238 133 141 229 302 308 300 250 268 262 272 283 287 292 295 296 290
234 227 218 215 209 208 199 191 192 193 177 192 182 193 153 172 174 197 197 180 186 182 162 170 231 210 202 183 211 218 246 252 219 206 250 294 281 270 254 267 274 279 286 288 291
235 225 208 210 204 199 201 203 195 167 181 195 188 197 170 175 176 197 194 199 170 181 191 209 187 173 186 190 196 211 228 187 242 225 258 317 282 277 270 267 273 278 283 284 284
232 219 210 204 205 198 202 199 195 184 198 182 188 206 179 177 221 200 198 186 197 207 191 231 238 181 189 217 164 234 163 179 230 158 263 159 281 274 263 269 249 271 272 280 291
229 220 207 204 195 195 198 197 188 185 219 181 162 191 187 179 147 193 195 193 172 173 155 203 173 197 204 205 175 233 157 183 182 211 295 245 272 331 34 279 277 268 272 287 298
223 220 204 194 189 194 191 188 180 198 207 162 144 161 160 190 178 148 175 196 180 151 277 224 227 185 206 139 177 144 108 141 161 227 239 240 209 275 253 247 259 264 264 313 320
230 224 188 185 177 181 181 179 194 218 152 169 172 166 184 168 168 159 176 182 169 184 219 158 199 217 178 109 68 152 139 225 205 202 246 152 187 244 260 265 260 252 284 3 77
204 180 181 177 177 171 172 190 212 159 166 178 167 177 186 169 189 163 164 196 213 174 166 210 222 174 182 197 168 191 208 223 227 212 233 142 224 251 252 323 260 267 183 124 101
169 167 168 172 176 175 174 210 211 144 153 161 151 174 181 179 165 168 187 201 198 193 178 188 228 68 151 152 162 179 214 222 278 94 283 222 280 294 305 269 261 9 184 118 95
165 144 163 164 171 172 195 199 128 120 150 157 162 176 177 183 178 186 183 203 205 195 215 204 96 226 171 101 271 186 197 178 203 227 253 237 269 251 338 316 325 110 89 89 95
141 117 154 168 169 170 204 210 94 218 202 161 175 172 193 181 192 187 185 202 193 189 169 146 104 126 141 204 184 188 221 191 344 249 267 265 245 329 299 297 101 95 98 103 96
126 73 161 164 157 144 154 140 160 196 208 275 150 161 188 180 190 193 197 200 197 163 193 170 136 161 205 152 224 207 218 209 231 210 216 224 250 332 326 86 98 87 95 94 86
116 88 161 175 182 128 81 154 58 163 170 128 255 234 224 185 194 200 202 180 178 173 176 176 195 128 205 276 215 215 207 195 175 173 248 273 256 164 86 105 115 120 116 99 81
133 126 141 185 191 110 135 203 186 243 215 163 188 295 215 178 187 198 209 188 177 184 184 167 174 206 213 189 145 199 205 200 189 233 242 232 210 173 157 133 139 134 119 98 76
138 175 159 178 200 194 158 161 160 174 213 204 210 217 250 186 190 180 189 133 179 183 179 178 216 202 219 159 175 188 189 199 208 228 222 237 217 199 179 164 162 155 133 117 113
118 117 117 90 157 190 211 205 184 190 172 218 224 207 213 263 204 197 178 184 171 176 189 205 224 154 239 215 187 234 221 206 213 223 232 246 256 166 172 178 171 145 133 125 121
156 137 167 155 177 186 213 214 210 195 207 212 201 191 194 213 246 271 190 188 162 172 191 201 177 145 236 167 115 263 237 201 217 207 216 229 237 154 158 165 157 146 149 149 157
Wind_Speed_850mb
70 61 54 53 48 45 43 48 53 55 48 41 39 39 35 35 40 41 34 30 22 20 22 18 16 15 13 7 8 4 8 3 5 8 3 3 4 2 2 6 10 8 9 10 14
86 72 63 54 53 48 44 41 44 49 53 46 38 34 34 33 35 45 47 35 26 19 17 16 16 13 7 7 5 7 7 14 5 4 2 1 3 1 2 1 7 11 12 15 13
68 82 80 65 57 54 48 42 41 42 48 49 42 34 29 27 27 45 49 42 33 23 18 17 8 7 2 4 3 3 9 7 5 1 1 4 4 1 6 5 12 6 5 11 13
63 69 86 75 65 57 53 47 41 37 41 46 44 37 27 24 13 5 20 34 42 35 27 17 9 1 2 2 2 3 7 6 1 3 3 4 6 11 10 9 7 9 17 21 22
76 66 69 82 70 64 54 50 44 39 38 40 44 40 36 31 35 3 4 19 43 45 36 26 17 9 6 4 3 4 3 5 9 13 12 14 16 16 25 20 22 28 25 23 27
78 71 66 69 76 66 59 54 47 41 36 38 41 46 46 34 34 45 5 13 17 43 40 33 14 17 4 5 6 4 3 10 7 13 18 11 9 13 4 11 22 25 30 30 31
78 78 68 62 71 67 62 53 51 43 38 38 39 49 44 46 18 39 52 24 2 23 37 34 28 17 11 2 12 7 9 11 7 10 10 9 13 13 39 28 30 33 28 35 37
73 76 69 65 61 67 62 58 48 46 41 36 39 46 25 42 32 18 43 46 26 10 24 29 28 14 8 4 4 2 3 6 6 9 9 9 18 8 17 14 23 30 36 37 42
70 74 80 71 64 60 64 60 52 43 42 37 38 28 17 30 58 35 23 37 39 28 17 15 28 10 12 8 9 7 12 8 12 4 5 13 6 11 20 27 41 48 53 55 58
67 75 75 78 70 63 59 57 48 41 44 38 31 19 29 26 45 51 30 26 32 33 23 15 11 8 7 14 30 22 12 7 13 3 4 12 20 17 52 50 52 61 65 69 73
68 75 77 75 77 64 60 54 36 25 66 22 27 13 2 34 36 60 43 35 31 33 16 20 12 25 26 20 14 6 4 7 2 3 8 12 21 22 51 50 50 61 75 88 95
81 70 77 76 82 76 70 70 68 23 20 40 14 52 17 32 29 46 64 32 21 11 17 10 37 17 9 14 13 11 14 13 6 5 5 15 42 25 19 36 53 60 72 80 83
82 90 82 82 83 75 85 85 70 34 12 28 26 56 35 36 20 51 62 50 11 16 23 23 8 32 20 13 16 13 21 7 8 1 7 10 47 27 38 48 55 48 57 73 80
94 90 81 80 80 86 85 82 65 48 7 18 25 23 35 25 9 28 63 41 14 32 14 21 29 14 8 22 15 25 14 11 8 5 16 10 34 26 10 24 17 54 62 68 81
82 86 81 91 74 93 91 84 63 49 21 24 22 22 46 36 32 29 61 47 16 12 14 14 19 27 25 18 20 11 14 18 12 8 8 28 12 9 11 21 38 36 44 63 49
86 92 93 94 73 91 80 84 66 18 27 15 26 24 28 45 14 29 30 32 13 9 4 8 3 16 14 10 25 12 9 5 6 11 17 27 19 48 20 24 20 10 24 36 27
74 86 118 104 79 90 81 81 23 27 18 18 26 31 49 21 25 19 26 25 15 18 28 9 10 5 5 11 4 8 10 6 9 11 17 8 21 46 7 14 13 22 33 3 20
75 114 110 101 88 90 81 31 34 20 19 9 23 40 41 30 26 17 29 34 26 6 9 26 9 20 11 13 12 20 26 13 9 8 9 8 18 22 11 9 22 35 25 23 25
75 92 94 83 91 91 58 30 31 9 16 24 28 31 23 27 20 23 32 44 32 30 19 17 13 4 2 9 20 11 24 30 13 3 3 9 15 21 6 20 16 4 28 33 36
66 55 57 74 85 79 23 20 9 4 10 16 20 25 28 41 29 37 33 31 22 37 3 11 2 1 6 8 8 8 6 8 11 10 8 9 10 14 22 23 7 17 38 43 45
44 21 53 65 69 48 17 14 4 13 8 18 15 17 35 26 35 35 33 13 45 32 23 10 8 2 9 18 22 11 16 6 3 6 9 22 11 10 20 23 11 30 47 47 46
26 7 49 74 10 5 8 13 18 8 19 1 3 7 28 34 35 34 39 39 52 41 40 12 8 9 20 5 3 13 24 24 15 10 8 2 4 3 3 21 46 41 49 45 44
27 14 52 61 11 4 6 8 2 9 11 8 8 8 8 31 20 30 24 21 43 34 37 25 12 7 3 3 4 12 21 21 7 1 19 7 10 8 13 31 40 53 46 39 32
20 9 13 28 11 7 9 10 16 20 3 12 9 7 4 13 10 31 34 8 48 45 37 48 8 27 28 10 12 16 21 21 19 7 14 18 10 11 12 23 29 33 31 25 18
10 5 14 17 25 18 14 16 14 15 17 32 17 24 8 12 27 10 20 9 19 47 32 24 20 10 1 5 7 11 19 34 33 50 22 21 25 28 30 25 30 32 25 17 10
14 9 9 3 18 27 15 15 34 15 19 14 23 33 38 13 24 24 28 14 18 10 31 12 6 14 10 12 9 8 13 36 47 37 40 20 25 10 41 41 27 26 29 26 19
10 17 21 18 20 23 35 28 29 27 30 29 38 21 24 45 38 30 48 39 24 25 30 21 11 8 19 8 9 12 50 27 27 14 36 31 29 15 16 25 27 33 35 31 21
Wind_Direction_850mb
242 242 240 237 234 233 234 235 232 233 235 236 236 237 236 246 255 248 247 250 256 272 280 283 305 327 330 6 19 44 65 154 239 165 239 7 136 100 102 153 195 214 270 291 306
240 241 240 239 236 233 231 231 231 231 230 232 235 237 237 243 252 255 242 240 247 259 277 290 290 310 336 350 19 81 109 213 231 157 241 24 129 55 155 130 228 240 266 290 278
237 236 238 239 238 234 230 227 225 226 227 227 230 233 237 242 263 268 256 243 236 246 254 261 291 346 9 337 354 133 178 212 249 223 316 331 311 317 154 269 246 261 301 300 280
239 233 234 238 234 234 230 226 225 222 220 220 221 225 227 227 225 247 245 231 224 228 233 242 248 42 55 249 252 295 233 199 322 330 315 298 303 299 234 243 251 241 300 290 277
241 237 231 233 234 230 228 224 221 220 216 212 211 213 212 210 216 257 17 222 211 213 219 222 216 188 189 213 262 214 250 245 278 279 275 275 252 259 265 270 272 279 285 279 274
240 238 230 230 228 227 223 222 219 216 213 208 205 204 211 222 239 226 222 49 220 216 209 209 213 213 234 222 180 279 268 278 288 275 266 261 269 215 271 249 257 280 289 290 283
238 231 229 226 224 224 220 219 215 213 210 205 203 205 215 220 221 222 229 246 38 210 212 209 201 193 199 259 234 273 318 327 250 253 254 284 293 226 274 273 271 276 283 296 295
235 229 226 223 222 219 219 215 214 209 206 203 206 207 221 227 217 209 222 227 223 160 197 216 206 211 190 163 36 188 67 277 266 220 239 159 261 278 296 280 277 280 286 290 292
229 227 225 226 221 215 214 213 210 206 202 198 202 197 228 215 208 202 214 215 215 216 205 197 207 198 171 141 232 197 246 235 305 18 298 191 258 258 248 280 292 293 295 296 295
228 225 226 223 221 210 209 206 201 197 191 192 202 187 235 201 204 193 198 196 189 197 188 190 180 171 180 187 224 231 228 232 221 274 239 267 263 272 278 285 292 294 297 297 294
239 220 222 223 212 208 199 189 179 194 183 180 184 188 332 192 193 196 192 182 188 189 182 186 210 216 200 216 238 133 141 229 302 308 300 250 268 262 272 283 287 292 295 296 290
234 227 218 215 209 208 199 191 192 193 177 192 182 193 153 172 174 197 197 180 186 182 162 170 231 210 202 183 211 218 246 252 219 206 250 294 281 270 254 267 274 279 286 288 291
235 225 208 210 204 199 201 203 195 167 181 195 188 197 170 175 176 197 194 199 170 181 191 209 187 173 186 190 196 211 228 187 242 225 258 317 282 277 270 267 273 278 283 284 284
232 219 210 204 205 198 202 199 195 184 198 182 188 206 179 177 221 200 198 186 197 207 191 231 238 181 189 217 164 234 163 179 230 158 263 159 281 274 263 269 249 271 272 280 291
229 220 207 204 195 195 198 197 188 185 219 181 162 191 187 179 147 193 195 193 172 173 155 203 173 197 204 205 175 233 157 183 182 211 295 245 272 331 34 279 277 268 272 287 298
223 220 204 194 189 194 191 188 180 198 207 162 144 161 160 190 178 148 175 196 180 151 277 224 227 185 206 139 177 144 108 141 161 227 239 240 209 275 253 247 259 264 264 313 320
230 224 188 185 177 181 181 179 194 218 152 169 172 166 184 168 168 159 176 182 169 184 219 158 199 217 178 109 68 152 139 225 205 202 246 152 187 244 260 265 260 252 284 3 77
204 180 181 177 177 171 172 190 212 159 166 178 167 177 186 169 189 163 164 196 213 174 166 210 222 174 182 197 168 191 208 223 227 212 233 142 224 251 252 323 260 267 183 124 101
169 167 168 172 176 175 174 210 211 144 153 161 151 174 181 179 165 168 187 201 198 193 178 188 228 68 151 152 162 179 214 222 278 94 283 222 280 294 305 269 261 9 184 118 95
165 144 163 164 171 172 195 199 128 120 150 157 162 176 177 183 178 186 183 203 205 195 215 204 96 226 171 101 271 186 197 178 203 227 253 237 269 251 338 316 325 110 89 89 95
141 117 154 168 169 170 204 210 94 218 202 161 175 172 193 181 192 187 185 202 193 189 169 146 104 126 141 204 184 188 221 191 344 249 267 265 245 329 299 297 101 95 98 103 96
126 73 161 164 157 144 154 140 160 196 208 275 150 161 188 180 190 193 197 200 197 163 193 170 136 161 205 152 224 207 218 209 231 210 216 224 250 332 326 86 98 87 95 94 86
116 88 161 175 182 128 81 154 58 163 170 128 255 234 224 185 194 200 202 180 178 173 176 176 195 128 205 276 215 215 207 195 175 173 248 273 256 164 86 105 115 120 116 99 81
133 126 141 185 191 110 135 203 186 243 215 163 188 295 215 178 187 198 209 188 177 184 184 167 174 206 213 189 145 199 205 200 189 233 242 232 210 173 157 133 139 134 119 98 76
138 175 159 178 200 194 158 161 160 174 213 204 210 217 250 186 190 180 189 133 179 183 179 178 216 202 219 159 175 188 189 199 208 228 222 237 217 199 179 164 162 155 133 117 113
118 117 117 90 157 190 211 205 184 190 172 218 224 207 213 263 204 197 178 184 171 176 189 205 224 154 239 215 187 234 221 206 213 223 232 246 256 166 172 178 171 145 133 125 121
156 137 167 155 177 186 213 214 210 195 207 212 201 191 194 213 246 271 190 188 162 172 191 201 177 145 236 167 115 263 237 201 217 207 216 229 237 154 158 165 157 146 149 149 157